WetterOnline ( http://www.wetteronline.de )

Wetter aktuell Döttesfeld

Aktuelles Wetter: Andernach (75m)

6-stündlich | Neueste Meldungen
Ortszeit Temperatur Wetter
Mi, 12.12. 13:00 4.6° C bewölkt
Mi, 12.12. 7:00 3.2° C bedeckt
Mi, 12.12. 1:00 1.1° C bedeckt
Di, 11.12. 19:00 2.5° C bewölkt
Di, 11.12. 13:00 4.3° C leichter Regen
Di, 11.12. 7:00 4.1° C leichter Regen
Di, 11.12. 1:00 4.8° C Sprühregen
Mo, 10.12. 19:00 4.7° C fast wolkenlos
Ortszeit Temperatur Wetter
Mi, 12.12. 15:30 4.4° C leicht bewölkt
Mi, 12.12. 15:20 4.4° C leicht bewölkt
Mi, 12.12. 15:10 4.5° C leicht bewölkt
Mi, 12.12. 15:00 4.8° C bedeckt
Mi, 12.12. 14:50 4.8° C bedeckt
Mi, 12.12. 14:40 4.8° C bewölkt
Mi, 12.12. 14:30 5.3° C bewölkt
Mi, 12.12. 14:00 5.9° C wolkig
Mi, 12.12. 13:30 6.0° C leicht bewölkt
Mi, 12.12. 13:00 4.6° C bewölkt
Mi, 12.12. 12:30 5.0° C bedeckt
Ortszeit Relative Feuchte Sichtweite
Mi, 12.12. 13:00 74% 29 km
Mi, 12.12. 7:00 92% 5.0 km
Mi, 12.12. 1:00 96% 3.5 km
Di, 11.12. 19:00 95% 17 km
Di, 11.12. 13:00 88% 10 km
Di, 11.12. 7:00 86% 8 km
Di, 11.12. 1:00 79% 9 km
Mo, 10.12. 19:00 77% 60 km
Ortszeit Relative Feuchte Sichtweite
Mi, 12.12. 15:30 74% 35 km
Mi, 12.12. 15:20 74% -
Mi, 12.12. 15:10 73% -
Mi, 12.12. 15:00 70% 40 km
Mi, 12.12. 14:50 70% -
Mi, 12.12. 14:40 69% -
Mi, 12.12. 14:30 71% 35 km
Mi, 12.12. 14:00 67% 30 km
Mi, 12.12. 13:30 67% 29 km
Mi, 12.12. 13:00 74% 29 km
Mi, 12.12. 12:30 76% 29 km
Ortszeit Niederschlagsmenge Niederschlagsart
Mi, 12.12. 13:00 0.0 l/m2 in 6 Std. -
Mi, 12.12. 7:00 0.0 l/m2 in 12 Std. -
Mi, 12.12. 1:00 0.0 l/m2 in 6 Std. -
Di, 11.12. 19:00 3 l/m2 in 12 Std. Regen
Di, 11.12. 13:00 2 l/m2 in 6 Std. Regen
Di, 11.12. 7:00 1 l/m2 in 12 Std. Regen
Di, 11.12. 1:00 0.1 l/m2 in 6 Std. Regen
Mo, 10.12. 19:00 3 l/m2 in 12 Std. Regen
Ortszeit Niederschlagsmenge Niederschlagsart
Mi, 12.12. 15:30 0.0 l/m2 in 1 Std. -
Mi, 12.12. 15:20 keine Meldung -
Mi, 12.12. 15:10 keine Meldung -
Mi, 12.12. 15:00 0.0 l/m2 in 1 Std. -
Mi, 12.12. 14:50 keine Meldung -
Mi, 12.12. 14:40 keine Meldung -
Mi, 12.12. 14:30 0.0 l/m2 in 1 Std. -
Mi, 12.12. 14:00 0.0 l/m2 in 1 Std. -
Mi, 12.12. 13:30 0.0 l/m2 in 1 Std. -
Mi, 12.12. 13:00 0.0 l/m2 in 1 Std. -
Mi, 12.12. 12:30 0.0 l/m2 in 1 Std. -
Ortszeit Stärke Spitze Richtung
km/h Bft. km/h Grad Sektor
Mi, 12.12. 13:00 2 1 17 360° N
Mi, 12.12. 7:00 4 1 11 320° NW
Mi, 12.12. 1:00 4 1 11 170° S
Di, 11.12. 19:00 4 1 25 210° SW
Di, 11.12. 13:00 11 2 29 330° NW
Di, 11.12. 7:00 7 2 32 320° NW
Di, 11.12. 1:00 11 2 32 320° NW
Mo, 10.12. 19:00 18 3 43 320° NW
Ortszeit Stärke Spitze Richtung
km/h Bft. km/h Grad Sektor
Mi, 12.12. 15:30 0 0 7 - -
Mi, 12.12. 15:20 0 0 - 340° N
Mi, 12.12. 15:10 2 1 - 140° SO
Mi, 12.12. 15:00 7 2 11 100° O
Mi, 12.12. 14:50 7 2 - 100° O
Mi, 12.12. 14:40 7 2 - 110° O
Mi, 12.12. 14:30 4 1 11 150° SO
Mi, 12.12. 14:00 6 1 9 200° S
Mi, 12.12. 13:30 2 1 6 80° O
Mi, 12.12. 13:00 2 1 11 360° N
Mi, 12.12. 12:30 4 1 11 20° N
Ortszeit Untergrenze Bedeckung Gattung
total tief tief mittel hoch
Mi, 12.12. 13:00 600 m 7/8 7/8 - - -
Mi, 12.12. 7:00 360 m 8/8 8/8 - - -
Mi, 12.12. 1:00 450 m 8/8 8/8 - - -
Di, 11.12. 19:00 780 m 7/8 7/8 - - -
Di, 11.12. 13:00 570 m 8/8 8/8 - - -
Di, 11.12. 7:00 180 m 7/8 7/8 - - -
Di, 11.12. 1:00 900 m 6/8 6/8 - - -
Mo, 10.12. 19:00 600 m 1/8 1/8 - - -
Ortszeit Bedeckungsgrad in Achtel und Wolkenuntergrenze
Mi, 12.12. 15:30 2(1800m)
Mi, 12.12. 15:20 2(1800m)
Mi, 12.12. 15:10 4(1800m)
Mi, 12.12. 15:00 8(1500m)
Mi, 12.12. 14:50 8(1500m)
Mi, 12.12. 14:40 2(750m) 7(1500m)
Mi, 12.12. 14:30 6(780m) 7(900m) 7(1170m)
Mi, 12.12. 14:00 6(660m) 7(780m) 7(1470m)
Mi, 12.12. 13:30 1(570m) 4(1380m)
Mi, 12.12. 13:00 2(600m) 7(1290m)
Mi, 12.12. 12:30 3(570m) 8(1260m)
Ortszeit Luftdruck NN (hPa) Tendenz (hPa in 3 Std.)
Mi, 12.12. 13:00 1025 - 0,5
Mi, 12.12. 7:00 1025 - 0,1
Mi, 12.12. 1:00 1025 + 0,2
Di, 11.12. 19:00 1025 + 0,6
Di, 11.12. 13:00 1025 0,0
Di, 11.12. 7:00 1024 + 0,2
Di, 11.12. 1:00 1024 + 0,1
Mo, 10.12. 19:00 1023 + 1,1
Ortszeit Luftdruck NN (hPa) Tendenz (hPa in 3 Std.)
Mi, 12.12. 15:30 1024 - 1,3
Mi, 12.12. 15:20 1024 keine Meldung
Mi, 12.12. 15:10 1024 keine Meldung
Mi, 12.12. 15:00 1024 - 1,3
Mi, 12.12. 14:50 1024 keine Meldung
Mi, 12.12. 14:40 1024 keine Meldung
Mi, 12.12. 14:30 1025 - 1,4
Mi, 12.12. 14:00 1025 - 1,2
Mi, 12.12. 13:30 1025 - 0,8
Mi, 12.12. 13:00 1025 - 0,5
Mi, 12.12. 12:30 1026 - 0,2
Ortszeit Schneehöhe (cm)
Mi, 12.12. 13:00 0
Mi, 12.12. 7:00 0
Mi, 12.12. 1:00 0
Di, 11.12. 19:00 0
Di, 11.12. 13:00 0
Di, 11.12. 7:00 0
Di, 11.12. 1:00 0
Mo, 10.12. 19:00 0
Ortszeit Schneehöhe (cm)
Mi, 12.12. 15:30 0
Mi, 12.12. 15:20 0
Mi, 12.12. 15:10 0
Mi, 12.12. 15:00 0
Mi, 12.12. 14:50 0
Mi, 12.12. 14:40 0
Mi, 12.12. 14:30 0
Mi, 12.12. 14:00 0
Mi, 12.12. 13:30 0
Mi, 12.12. 13:00 0
Mi, 12.12. 12:30 0
Link zu dieser Seite / Seite empfehlen

Das Wetter in ...